Regional Weather Roundup
Issued by NWS Goodland, KS

Home | Current Version | Previous Version | Graphics & Text | Print | Product List | Glossary On
Versions: 1 2 3 4 5 6 7 8 9 10 11 12 13 14 15 16 17 18 19 20 21 22 23 24 25 26 27 28 29 30 31 32 33 34 35 36 37 38 39 40 41 42 43 44 45 46 47 48 49 50
000
ASUS43 KGLD 200959
RWRGLD

GOODLAND FORECAST AREA HOURLY WEATHER ROUNDUP
NATIONAL WEATHER SERVICE GOODLAND KS
400 AM MDT SUN AUG 20 2017

...OFFICIAL OBSERVATIONS...

CITY           SKY/WX    TMP DP  RH WIND       PRES   REMARKS
GOODLAND KS    CLEAR     67  51  56 S9        29.93S
HILL CITY KS   CLEAR     71  65  81 SW8       29.87F
IMPERIAL NEB   CLEAR     61  57  87 SW9       29.90R
MCCOOK NEB     CLEAR     67  59  75 SW8       29.86S
AKRON CO       CLEAR     63  45  51 W10       29.99F
BURLINGTON CO  CLOUDY    67  52  58 SW8       29.97S
LIMON CO       CLOUDY    52  49  89 N7        30.07S
$$

...UNOFFICIAL OBSERVATIONS...

CITY           SKY/WX    TMP DP  RH WIND       PRES   REMARKS
LENORA KS        N/A     71  32  23 SW10        N/A
NORTON KS      CLEAR     72  59  64 SW7       29.85S
TRENTON NEB      N/A     66  32  28 W6          N/A
KIT CARSON CO    N/A     60  53  77 CALM        N/A
YUMA CO        FAIR      59  37  44 W8        29.95S
$$




USA.gov is the U.S. government's official web portal to all federal, state and local government web resources and services.